Wind_Speed
46 46 47 47 46 46 45 45 46 46 45 44 44 43 44 44 43 43 43 43 44 45 46 46 46 45 45 45 45 46 46 47 47 47 47 48 48 48 49 49 47 46 46
46 46 45 45 45 44 44 45 45 45 44 44 44 44 44 44 43 42 42 43 44 45 45 45 46 46 46 46 46 46 46 47 47 47 47 47 47 48 47 46 46 46 46
44 44 44 45 44 44 44 45 45 45 44 44 45 45 44 43 42 42 42 42 43 43 44 45 45 45 46 46 46 45 45 46 47 47 47 48 47 46 46 45 46 47 47
44 44 44 44 43 43 44 44 44 44 44 44 44 44 44 44 43 43 43 43 43 44 45 45 45 44 44 44 44 44 45 46 46 48 48 47 47 46 45 46 46 46 47
45 45 44 45 45 45 45 44 45 44 43 42 42 43 43 43 44 44 44 44 44 44 45 45 45 43 43 43 44 44 45 46 47 47 47 47 47 46 46 45 45 45 45
43 44 44 45 45 45 45 44 43 43 43 43 43 43 43 43 43 44 44 45 45 45 44 45 45 44 44 44 45 45 45 46 47 47 46 47 46 45 45 45 44 44 44
43 44 44 44 44 44 45 44 43 43 43 43 43 44 44 44 45 45 44 45 45 45 45 44 44 43 43 43 43 44 45 46 46 46 45 45 44 44 44 44 44 44 43
43 43 43 44 44 44 44 44 43 43 44 44 44 43 43 43 43 43 44 44 43 43 43 43 43 43 43 43 43 44 45 45 44 44 44 43 42 42 43 43 43 43 42
42 42 42 43 44 44 43 43 43 43 43 43 43 43 43 43 43 43 43 42 42 42 43 42 42 43 44 44 44 44 44 43 42 42 42 42 43 42 42 42 42 42 40
40 40 41 42 43 43 42 43 43 43 42 43 42 42 43 43 42 41 41 41 41 41 41 42 43 43 44 44 45 44 42 41 41 40 41 42 41 41 42 42 42 41 40
38 39 39 40 41 41 41 41 42 42 42 42 42 42 42 42 42 41 41 41 41 41 41 42 42 43 44 44 43 42 41 40 40 40 40 40 40 40 41 41 41 41 40
36 37 37 38 38 39 40 40 41 41 42 42 42 42 42 42 41 41 41 41 40 40 41 41 42 42 43 42 40 40 39 39 39 39 39 39 40 40 40 40 40 40 40
34 35 35 36 37 38 39 39 39 40 40 41 40 41 41 41 41 41 41 41 40 39 39 41 41 41 40 39 39 38 38 39 39 39 39 39 39 39 39 39 39 39 40
33 34 34 35 36 37 38 39 39 39 40 40 40 40 40 40 40 40 40 40 40 39 39 40 40 39 38 37 37 38 38 38 38 39 38 38 37 37 38 38 38 38 37
32 33 34 34 34 35 36 37 38 38 39 39 39 39 39 39 39 39 39 39 39 39 39 38 38 38 37 37 37 37 37 37 37 37 37 37 36 36 36 36 36 35 34
32 33 33 34 34 35 35 36 36 36 37 37 37 37 37 38 38 38 37 37 37 37 37 37 37 37 36 36 36 36 36 36 36 36 36 36 35 35 34 33 32 32 30
34 34 34 34 35 35 34 34 34 34 34 34 35 35 35 35 35 35 35 36 36 36 35 35 35 35 35 35 34 34 34 35 35 34 34 34 33 33 33 31 30 29 27
33 33 33 33 33 33 33 33 33 33 32 32 33 34 34 33 33 33 33 33 33 33 33 33 32 32 33 33 33 32 33 33 32 32 31 31 31 30 29 28 26 24 23
32 32 32 33 33 33 32 32 32 32 32 32 32 33 33 33 32 32 32 32 32 31 30 29 30 30 30 30 31 31 30 29 28 28 28 29 28 27 26 25 23 22 21
31 31 32 32 31 31 31 31 31 31 31 31 31 31 31 31 31 31 31 30 30 29 28 28 28 28 28 28 28 28 26 26 25 25 25 25 25 25 24 22 21 20 20
30 30 30 31 30 30 29 29 30 30 30 30 30 30 29 29 29 29 29 28 27 26 26 26 27 27 27 26 25 24 24 24 24 24 23 23 22 21 20 19 19 18 18
29 29 29 29 29 28 28 28 28 27 27 27 27 27 27 26 26 26 26 25 25 25 25 26 26 25 25 24 23 23 23 23 23 23 22 21 20 19 18 18 18 18 18
26 26 26 26 26 26 26 26 25 25 24 24 24 24 24 24 24 24 23 23 23 24 24 24 23 23 23 22 21 21 22 22 21 20 20 19 18 18 17 17 17 17 17
24 23 24 24 24 23 23 23 23 23 23 23 23 23 23 23 23 22 22 22 22 22 22 22 22 21 21 20 20 20 20 19 19 18 17 17 17 16 16 16 16 16 16
23 22 22 22 21 21 21 21 21 21 21 20 21 21 21 21 21 21 21 20 20 20 20 20 20 20 19 18 18 18 18 17 16 16 16 16 15 15 15 15 14 14 13
22 22 21 21 20 21 21 20 20 20 20 20 19 19 19 19 19 19 19 19 19 19 19 18 18 17 16 16 16 16 15 15 14 14 14 14 13 13 13 13 12 11 11
Wind_Direction
251 252 254 256 257 260 262 263 264 266 268 270 272 272 273 275 277 278 277 277 278 279 281 283 285 285 284 286 288 288 288 289 289 290 291 292 292 293 294 294 295 295 296
252 253 255 256 259 261 262 264 265 267 269 270 271 272 274 276 276 277 278 278 279 280 282 284 285 285 284 285 287 288 288 289 290 291 291 292 292 293 293 293 294 295 296
253 253 255 258 260 261 263 265 266 267 269 270 271 272 273 274 275 275 277 279 281 282 284 284 285 285 285 285 286 287 288 290 291 292 292 292 293 293 293 292 293 294 295
253 254 255 257 259 262 263 264 266 267 269 270 272 272 272 273 274 276 278 279 282 283 283 284 285 285 285 286 287 288 289 290 291 292 293 293 292 292 292 292 293 294 294
254 254 256 257 259 262 264 265 267 268 269 270 271 272 273 273 276 277 278 280 282 283 284 284 285 285 285 286 288 289 290 292 293 293 293 294 293 292 291 292 293 293 293
254 255 257 259 260 262 263 265 266 267 268 269 270 271 273 274 276 277 279 281 282 283 284 284 285 285 286 288 289 290 292 294 295 295 294 294 294 293 292 293 294 294 294
257 258 258 259 261 263 264 265 265 266 268 269 270 272 274 275 276 278 279 281 282 283 284 285 284 285 288 289 290 291 292 294 295 295 296 296 295 294 294 294 295 296 296
259 260 260 260 262 263 264 265 266 267 268 270 271 273 274 275 276 277 279 280 282 283 283 284 284 286 287 288 290 292 293 294 294 294 295 296 296 296 296 296 296 296 295
258 259 261 262 262 263 264 265 266 266 267 270 271 272 273 274 276 278 278 278 280 281 281 282 285 286 287 287 290 292 293 292 292 293 294 296 298 297 297 296 296 296 296
257 259 260 262 263 264 265 265 266 267 268 269 270 271 273 274 276 277 277 278 279 280 281 283 285 287 288 289 291 292 291 291 291 292 294 296 296 295 295 295 297 297 296
257 259 260 262 263 264 265 266 267 267 268 269 270 270 272 273 274 275 276 277 278 280 281 283 285 287 288 290 291 290 290 291 292 294 296 297 297 296 295 296 296 296 295
260 261 262 262 263 264 265 266 267 267 268 269 269 270 271 272 273 274 275 277 279 280 281 283 285 287 289 289 289 289 289 291 293 295 296 297 297 297 296 296 296 295 295
262 263 264 265 265 265 266 267 268 268 269 270 270 271 271 271 273 274 274 276 279 280 281 283 284 286 288 288 289 289 290 291 293 294 296 297 298 297 296 297 297 296 296
263 264 265 266 266 266 267 268 268 268 269 270 271 271 270 272 274 274 274 276 278 279 281 282 284 286 287 287 288 289 290 292 293 294 295 297 298 298 297 298 298 297 297
264 265 266 267 267 268 269 269 270 270 270 271 270 270 271 272 273 275 276 277 279 279 280 282 283 284 285 286 287 288 289 291 293 294 296 297 297 298 298 299 299 299 298
266 267 268 269 268 269 269 270 269 269 270 270 270 271 271 272 273 275 277 278 278 279 280 282 283 283 284 285 287 288 290 291 292 293 294 296 297 299 300 300 300 300 299
267 268 269 269 270 270 270 269 270 271 271 270 269 270 271 273 274 275 277 278 278 279 280 281 282 283 285 285 286 287 289 291 293 294 295 296 298 300 301 301 301 301 301
268 269 269 270 270 269 269 269 270 270 270 270 270 270 271 272 272 274 276 278 279 280 281 281 282 283 285 286 287 289 291 293 294 294 295 297 299 301 302 303 303 302 303
266 267 269 270 270 270 270 270 270 270 270 271 271 271 271 271 272 273 275 277 279 281 281 281 283 285 287 287 289 290 291 293 293 295 296 297 299 301 302 301 301 302 305
265 267 269 270 270 269 269 269 269 269 270 271 271 271 270 271 273 274 276 277 278 279 279 280 282 286 288 290 290 291 291 292 294 297 298 299 300 301 301 300 301 302 304
267 268 269 270 270 269 268 268 269 269 270 270 270 270 270 270 272 274 275 276 276 276 277 279 283 286 288 290 290 291 291 292 293 296 298 300 302 303 303 303 304 305 305
268 268 269 269 269 268 268 269 270 271 272 272 271 270 269 270 272 273 274 274 274 276 278 281 284 285 287 288 288 289 291 292 293 294 296 297 300 302 302 304 306 308 307
268 269 271 271 268 267 266 267 269 270 271 271 271 270 268 268 270 271 272 274 275 277 279 282 283 284 286 286 288 290 292 292 292 292 292 294 297 298 300 303 306 308 309
268 269 270 269 267 265 265 267 267 267 269 270 270 270 268 267 268 270 273 274 276 278 280 281 282 284 285 286 288 290 291 292 292 292 292 294 297 298 300 303 306 308 310
269 269 268 267 265 264 263 265 267 267 268 269 269 270 269 267 268 271 273 274 276 279 280 281 282 283 283 285 288 290 291 290 290 292 294 296 298 300 302 304 306 308 311
266 265 264 263 262 262 263 264 265 266 269 270 271 271 269 268 268 270 271 274 277 278 280 282 283 282 283 286 288 289 289 289 292 294 296 298 299 301 304 306 307 309 313
Height
5690 5692 5695 5697 5699 5701 5703 5704 5705 5705 5706 5707 5708 5708 5708 5708 5708 5708 5708 5707 5707 5706 5705 5704 5702 5701 5699 5697 5694 5692 5690 5687 5686 5685 5681 5678 5674 5670 5666 5662 5658 5654 5649
5680 5682 5685 5687 5689 5691 5692 5693 5694 5695 5696 5697 5697 5698 5698 5698 5698 5697 5697 5697 5696 5695 5694 5692 5691 5689 5687 5685 5683 5680 5678 5675 5673 5671 5669 5665 5662 5658 5654 5650 5646 5642 5638
5669 5672 5675 5677 5679 5680 5682 5683 5684 5685 5685 5686 5687 5687 5688 5688 5688 5687 5686 5686 5685 5684 5683 5681 5679 5677 5675 5673 5671 5668 5666 5663 5660 5657 5655 5652 5649 5645 5641 5638 5635 5630 5626
5659 5662 5664 5666 5668 5669 5671 5672 5673 5674 5675 5675 5676 5676 5677 5677 5677 5676 5676 5675 5674 5673 5671 5670 5668 5666 5664 5662 5659 5657 5654 5651 5648 5645 5642 5639 5636 5632 5629 5626 5623 5619 5614
5649 5651 5653 5655 5657 5658 5660 5661 5662 5663 5664 5665 5665 5665 5665 5666 5666 5665 5665 5664 5663 5662 5660 5658 5656 5654 5652 5650 5648 5645 5642 5639 5636 5633 5630 5626 5623 5620 5616 5613 5610 5607 5603
5638 5640 5642 5644 5646 5647 5648 5650 5651 5652 5653 5653 5654 5654 5654 5654 5654 5654 5653 5653 5652 5651 5649 5647 5645 5643 5641 5639 5636 5634 5631 5627 5624 5621 5617 5614 5611 5607 5603 5600 5597 5594 5592
5627 5629 5631 5633 5634 5635 5637 5638 5639 5640 5641 5642 5642 5643 5643 5643 5643 5642 5641 5641 5640 5639 5638 5636 5634 5632 5630 5628 5625 5622 5619 5615 5612 5608 5605 5601 5598 5595 5591 5589 5585 5581 5578
5616 5618 5619 5621 5623 5625 5626 5627 5628 5629 5630 5631 5631 5631 5632 5632 5631 5630 5630 5629 5628 5627 5626 5625 5623 5621 5619 5616 5614 5611 5608 5604 5601 5597 5594 5590 5586 5583 5579 5576 5573 5570 5566
5605 5607 5609 5610 5612 5613 5614 5616 5617 5618 5619 5619 5620 5620 5620 5620 5620 5619 5618 5618 5617 5616 5615 5613 5611 5610 5608 5605 5603 5600 5597 5594 5590 5586 5582 5579 5575 5572 5568 5565 5562 5559 5556
5594 5596 5597 5599 5600 5602 5603 5604 5605 5606 5607 5608 5608 5608 5609 5609 5608 5608 5607 5607 5606 5606 5604 5602 5600 5598 5596 5593 5591 5588 5586 5583 5580 5576 5573 5569 5565 5561 5558 5554 5551 5547 5544
5584 5585 5586 5588 5589 5590 5592 5593 5594 5595 5596 5596 5597 5597 5597 5597 5597 5597 5596 5595 5595 5594 5593 5592 5590 5587 5585 5582 5579 5577 5575 5572 5569 5566 5563 5559 5555 5552 5548 5544 5540 5536 5533
5574 5575 5576 5577 5578 5579 5580 5581 5582 5583 5584 5585 5585 5586 5586 5586 5585 5585 5585 5584 5583 5583 5582 5580 5578 5576 5574 5571 5569 5566 5564 5561 5559 5556 5553 5549 5546 5542 5538 5534 5530 5526 5522
5564 5565 5566 5567 5568 5569 5569 5570 5571 5572 5572 5573 5573 5574 5574 5574 5574 5574 5574 5573 5572 5571 5571 5569 5567 5565 5563 5561 5558 5556 5554 5551 5549 5546 5543 5539 5535 5531 5528 5524 5520 5516 5512
5554 5555 5556 5557 5558 5558 5559 5559 5560 5561 5561 5562 5562 5563 5563 5563 5563 5563 5562 5562 5561 5560 5559 5558 5556 5554 5552 5550 5548 5546 5543 5541 5538 5536 5533 5529 5525 5522 5518 5515 5511 5507 5503
5545 5546 5546 5547 5547 5548 5548 5549 5549 5550 5550 5551 5551 5551 5552 5552 5552 5552 5551 5551 5550 5550 5548 5547 5546 5544 5542 5540 5538 5536 5533 5531 5529 5526 5523 5520 5516 5513 5509 5505 5501 5497 5494
5536 5536 5537 5537 5537 5538 5538 5539 5539 5539 5540 5540 5540 5540 5540 5541 5541 5541 5540 5540 5539 5538 5537 5536 5535 5533 5532 5530 5528 5526 5524 5522 5519 5516 5514 5511 5507 5504 5500 5497 5493 5489 5486
5526 5527 5527 5527 5528 5528 5528 5528 5529 5529 5529 5529 5529 5530 5530 5530 5530 5530 5530 5529 5529 5528 5527 5526 5525 5523 5522 5520 5518 5516 5515 5512 5510 5507 5505 5502 5499 5495 5492 5489 5486 5482 5479
5516 5517 5517 5518 5518 5518 5518 5518 5518 5519 5519 5519 5520 5520 5520 5521 5521 5520 5520 5519 5519 5518 5517 5516 5515 5514 5512 5511 5509 5507 5505 5503 5501 5498 5496 5494 5491 5488 5485 5482 5479 5476 5473
5507 5507 5507 5508 5508 5508 5508 5508 5508 5509 5509 5510 5510 5510 5511 5511 5511 5511 5510 5510 5510 5509 5508 5507 5506 5505 5504 5502 5500 5498 5496 5494 5492 5490 5488 5486 5484 5481 5479 5476 5473 5471 5468
5497 5497 5498 5498 5498 5498 5498 5498 5499 5499 5500 5500 5501 5501 5501 5501 5502 5502 5501 5501 5501 5500 5500 5499 5498 5497 5496 5494 5492 5490 5489 5487 5486 5484 5482 5479 5477 5475 5473 5470 5468 5466 5464
5488 5488 5488 5488 5488 5489 5489 5489 5490 5490 5491 5491 5491 5492 5492 5492 5493 5493 5493 5492 5492 5492 5492 5491 5490 5489 5488 5487 5485 5484 5482 5481 5479 5478 5476 5474 5472 5470 5468 5465 5463 5461 5459
5478 5479 5479 5479 5479 5480 5480 5481 5481 5482 5482 5482 5483 5483 5483 5484 5484 5485 5485 5485 5484 5484 5484 5484 5483 5482 5481 5480 5478 5477 5476 5475 5473 5472 5470 5469 5467 5465 5463 5461 5459 5457 5455
5470 5470 5471 5471 5471 5472 5472 5473 5473 5474 5474 5474 5475 5475 5476 5476 5477 5477 5477 5477 5477 5477 5477 5476 5476 5475 5474 5473 5472 5471 5470 5469 5468 5466 5465 5464 5462 5461 5459 5457 5455 5453 5451
5463 5463 5463 5463 5464 5465 5465 5466 5466 5467 5467 5467 5468 5468 5469 5469 5470 5470 5471 5471 5470 5470 5470 5469 5469 5468 5467 5467 5466 5465 5464 5463 5462 5461 5460 5459 5458 5456 5455 5453 5451 5449 5447
5455 5456 5456 5457 5457 5458 5459 5459 5459 5460 5460 5460 5461 5461 5462 5462 5463 5464 5464 5464 5464 5464 5463 5463 5462 5462 5461 5461 5461 5460 5459 5458 5457 5457 5456 5455 5453 5452 5451 5449 5447 5446 5444
5448 5449 5449 5450 5451 5451 5452 5453 5453 5454 5454 5454 5455 5455 5456 5456 5457 5457 5458 5458 5458 5458 5458 5457 5457 5457 5456 5456 5456 5455 5454 5454 5453 5452 5452 5451 5450 5448 5447 5446 5444 5443 5441